Time,TemperatureF,DewpointF,PressureIn,WindDirection,WindDirectionDegrees,WindSpeedMPH,WindSpeedGustMPH,Humidity,HourlyPrecipIn,Conditions,Clouds,dailyrainin,SolarRadiationWatts/m^2,SoftwareType,DateUTC
2013-03-03 00:00:00,32.4,24.1,29.66,NW,305,3.0,6.0,71,0.00,,,0.00,0.0,WUHU216DAVISWMX,2013-03-03 05:00:00,
2013-03-03 00:05:00,32.4,23.8,29.66,NNW,336,3.0,7.0,70,0.00,,,0.00,0.0,WUHU216DAVISWMX,2013-03-03 05:05:00,
2013-03-03 00:10:00,32.3,24.0,29.66,NNW,336,7.0,7.0,71,0.00,,,0.00,0.0,WUHU216DAVISWMX,2013-03-03 05:10:00,
2013-03-03 00:15:00,32.3,24.3,29.66,North,350,4.0,7.0,72,0.00,,,0.00,0.0,WUHU216DAVISWMX,2013-03-03 05:15:00,
2013-03-03 00:20:00,32.3,24.3,29.66,NW,323,1.0,7.0,72,0.00,,,0.00,0.0,WUHU216DAVISWMX,2013-03-03 05:20:00,
2013-03-03 00:25:00,32.2,24.2,29.66,NW,323,2.0,5.0,72,0.00,,,0.00,0.0,WUHU216DAVISWMX,2013-03-03 05:25:00,
2013-03-03 00:30:00,32.2,24.6,29.66,NW,314,0.0,6.0,73,0.00,,,0.00,0.0,WUHU216DAVISWMX,2013-03-03 05:30:00,
2013-03-03 00:35:00,32.2,24.6,29.65,NW,325,2.0,7.0,73,0.00,,,0.00,0.0,WUHU216DAVISWMX,2013-03-03 05:35:00,
2013-03-03 00:40:00,32.1,24.5,29.66,NW,310,3.0,7.0,73,0.00,,,0.00,0.0,WUHU216DAVISWMX,2013-03-03 05:40:00,
2013-03-03 00:45:00,32.0,24.7,29.66,WNW,303,1.0,7.0,74,0.00,,,0.00,0.0,WUHU216DAVISWMX,2013-03-03 05:45:00,
2013-03-03 00:50:00,32.0,24.4,29.66,WNW,290,2.0,7.0,73,0.00,,,0.00,0.0,WUHU216DAVISWMX,2013-03-03 05:50:00,
2013-03-03 00:55:00,32.0,24.4,29.66,NW,318,3.0,7.0,73,0.00,,,0.00,0.0,WUHU216DAVISWMX,2013-03-03 05:55:00,
2013-03-03 01:00:00,32.0,24.4,29.66,NW,310,2.0,6.0,73,0.00,,,0.00,0.0,WUHU216DAVISWMX,2013-03-03 06:00:00,
2013-03-03 01:05:00,31.9,24.3,29.66,NW,308,3.0,5.0,73,0.00,,,0.00,0.0,WUHU216DAVISWMX,2013-03-03 06:05:00,
2013-03-03 01:10:00,31.9,24.3,29.65,NW,313,0.0,5.0,73,0.00,,,0.00,0.0,WUHU216DAVISWMX,2013-03-03 06:10:00,
2013-03-03 01:15:00,31.9,24.3,29.65,NW,312,0.0,5.0,73,0.00,,,0.00,0.0,WUHU216DAVISWMX,2013-03-03 06:15:00,
2013-03-03 01:20:00,31.8,24.5,29.66,NW,311,0.0,5.0,74,0.00,,,0.00,0.0,WUHU216DAVISWMX,2013-03-03 06:20:00,
2013-03-03 01:25:00,31.8,24.5,29.65,NW,312,0.0,4.0,74,0.00,,,0.00,0.0,WUHU216DAVISWMX,2013-03-03 06:25:00,
2013-03-03 01:30:00,31.7,24.4,29.65,NW,313,0.0,4.0,74,0.00,,,0.00,0.0,WUHU216DAVISWMX,2013-03-03 06:30:00,
2013-03-03 01:35:00,31.7,24.4,29.65,NW,311,2.0,6.0,74,0.00,,,0.00,0.0,WUHU216DAVISWMX,2013-03-03 06:35:00,
2013-03-03 01:40:00,31.6,24.3,29.65,NW,311,0.0,6.0,74,0.00,,,0.00,0.0,WUHU216DAVISWMX,2013-03-03 06:40:00,
2013-03-03 01:45:00,31.6,24.3,29.65,NW,310,3.0,6.0,74,0.00,,,0.00,0.0,WUHU216DAVISWMX,2013-03-03 06:45:00,
2013-03-03 01:50:00,31.6,24.3,29.65,NW,310,3.0,6.0,74,0.00,,,0.00,0.0,WUHU216DAVISWMX,2013-03-03 06:50:00,
2013-03-03 01:55:00,31.6,24.3,29.65,WNW,301,1.0,6.0,74,0.00,,,0.00,0.0,WUHU216DAVISWMX,2013-03-03 06:55:00,
2013-03-03 02:00:00,31.6,24.3,29.65,WNW,296,0.0,6.0,74,0.00,,,0.00,0.0,WUHU216DAVISWMX,2013-03-03 07:00:00,
2013-03-03 02:05:00,31.6,24.3,29.65,WNW,297,3.0,6.0,74,0.00,,,0.00,0.0,WUHU216DAVISWMX,2013-03-03 07:05:00,
2013-03-03 02:10:00,31.5,24.2,29.64,WNW,301,0.0,6.0,74,0.00,,,0.00,0.0,WUHU216DAVISWMX,2013-03-03 07:10:00,
2013-03-03 02:15:00,31.5,24.2,29.64,WNW,303,3.0,6.0,74,0.00,,,0.00,0.0,WUHU216DAVISWMX,2013-03-03 07:15:00,
2013-03-03 02:20:00,31.5,24.2,29.65,WNW,302,0.0,6.0,74,0.00,,,0.00,0.0,WUHU216DAVISWMX,2013-03-03 07:20:00,
2013-03-03 02:25:00,31.5,23.9,29.64,NW,306,3.0,6.0,73,0.00,,,0.00,0.0,WUHU216DAVISWMX,2013-03-03 07:25:00,
2013-03-03 02:30:00,31.5,23.9,29.64,WNW,301,4.0,6.0,73,0.00,,,0.00,0.0,WUHU216DAVISWMX,2013-03-03 07:30:00,
2013-03-03 02:35:00,31.5,23.9,29.64,WNW,300,1.0,6.0,73,0.00,,,0.00,0.0,WUHU216DAVISWMX,2013-03-03 07:35:00,
2013-03-03 02:40:00,31.5,23.9,29.64,WNW,293,0.0,5.0,73,0.00,,,0.00,0.0,WUHU216DAVISWMX,2013-03-03 07:40:00,
2013-03-03 02:45:00,31.5,23.9,29.64,WNW,293,4.0,5.0,73,0.00,,,0.00,0.0,WUHU216DAVISWMX,2013-03-03 07:45:00,
2013-03-03 02:50:00,31.4,23.8,29.64,WNW,293,0.0,4.0,73,0.00,,,0.00,0.0,WUHU216DAVISWMX,2013-03-03 07:50:00,
2013-03-03 02:55:00,31.4,23.8,29.64,WNW,293,1.0,5.0,73,0.00,,,0.00,0.0,WUHU216DAVISWMX,2013-03-03 07:55:00,
2013-03-03 03:00:00,31.4,23.8,29.64,WNW,293,2.0,5.0,73,0.00,,,0.00,0.0,WUHU216DAVISWMX,2013-03-03 08:00:00,
2013-03-03 03:05:00,31.4,23.8,29.64,WNW,293,0.0,4.0,73,0.00,,,0.00,0.0,WUHU216DAVISWMX,2013-03-03 08:05:00,
2013-03-03 03:10:00,31.4,23.8,29.64,WNW,293,1.0,3.0,73,0.00,,,0.00,0.0,WUHU216DAVISWMX,2013-03-03 08:10:00,
2013-03-03 03:15:00,31.4,23.8,29.64,WNW,293,0.0,3.0,73,0.00,,,0.00,0.0,WUHU216DAVISWMX,2013-03-03 08:15:00,
2013-03-03 03:20:00,31.4,24.1,29.64,WNW,293,2.0,3.0,74,0.00,,,0.00,0.0,WUHU216DAVISWMX,2013-03-03 08:20:00,
2013-03-03 03:25:00,31.3,23.7,29.64,WNW,293,2.0,4.0,73,0.00,,,0.00,0.0,WUHU216DAVISWMX,2013-03-03 08:25:00,
2013-03-03 03:30:00,31.3,23.7,29.64,WNW,293,0.0,4.0,73,0.00,,,0.00,0.0,WUHU216DAVISWMX,2013-03-03 08:30:00,
2013-03-03 03:35:00,31.3,23.7,29.64,WNW,293,0.0,3.0,73,0.00,,,0.00,0.0,WUHU216DAVISWMX,2013-03-03 08:35:00,
2013-03-03 03:40:00,31.2,23.6,29.64,WNW,294,1.0,5.0,73,0.00,,,0.00,0.0,WUHU216DAVISWMX,2013-03-03 08:40:00,
2013-03-03 03:45:00,31.3,24.0,29.64,WNW,294,0.0,5.0,74,0.00,,,0.00,0.0,WUHU216DAVISWMX,2013-03-03 08:45:00,
2013-03-03 03:50:00,31.3,24.0,29.63,WNW,294,0.0,3.0,74,0.00,,,0.00,0.0,WUHU216DAVISWMX,2013-03-03 08:50:00,
2013-03-03 03:55:00,31.2,23.9,29.64,WNW,294,0.0,3.0,74,0.00,,,0.00,0.0,WUHU216DAVISWMX,2013-03-03 08:55:00,
2013-03-03 04:00:00,31.1,23.8,29.63,WNW,294,2.0,3.0,74,0.00,,,0.00,0.0,WUHU216DAVISWMX,2013-03-03 09:00:00,
2013-03-03 04:05:00,31.1,23.8,29.64,WNW,295,2.0,4.0,74,0.00,,,0.00,0.0,WUHU216DAVISWMX,2013-03-03 09:05:00,
2013-03-03 04:10:00,31.1,23.8,29.64,WNW,296,2.0,5.0,74,0.00,,,0.00,0.0,WUHU216DAVISWMX,2013-03-03 09:10:00,
2013-03-03 04:15:00,31.0,23.7,29.64,WNW,296,1.0,5.0,74,0.00,,,0.00,0.0,WUHU216DAVISWMX,2013-03-03 09:15:00,
2013-03-03 04:20:00,30.9,23.6,29.64,WNW,296,2.0,5.0,74,0.00,,,0.00,0.0,WUHU216DAVISWMX,2013-03-03 09:20:00,
2013-03-03 04:25:00,30.8,24.2,29.64,WNW,293,4.0,6.0,76,0.00,,,0.00,0.0,WUHU216DAVISWMX,2013-03-03 09:25:00,
2013-03-03 04:30:00,30.5,24.2,29.64,NW,316,3.0,6.0,77,0.00,,,0.00,0.0,WUHU216DAVISWMX,2013-03-03 09:30:00,
2013-03-03 04:35:00,30.3,24.3,29.64,WNW,297,1.0,6.0,78,0.00,,,0.00,0.0,WUHU216DAVISWMX,2013-03-03 09:35:00,
2013-03-03 04:40:00,30.1,24.1,29.64,NW,304,0.0,6.0,78,0.00,,,0.00,0.0,WUHU216DAVISWMX,2013-03-03 09:40:00,
2013-03-03 04:45:00,30.0,24.3,29.64,NW,304,1.0,6.0,79,0.00,,,0.00,0.0,WUHU216DAVISWMX,2013-03-03 09:45:00,
2013-03-03 04:50:00,29.8,24.1,29.64,NW,304,0.0,5.0,79,0.00,,,0.00,0.0,WUHU216DAVISWMX,2013-03-03 09:50:00,
2013-03-03 04:55:00,29.8,24.4,29.64,NW,304,1.0,5.0,80,0.00,,,0.00,0.0,WUHU216DAVISWMX,2013-03-03 09:55:00,
2013-03-03 05:00:00,29.7,24.3,29.64,NW,304,1.0,3.0,80,0.00,,,0.00,0.0,WUHU216DAVISWMX,2013-03-03 10:00:00,
2013-03-03 05:05:00,29.6,24.5,29.64,NW,304,0.0,2.0,81,0.00,,,0.00,0.0,WUHU216DAVISWMX,2013-03-03 10:05:00,
2013-03-03 05:10:00,29.6,24.5,29.64,NW,304,3.0,3.0,81,0.00,,,0.00,0.0,WUHU216DAVISWMX,2013-03-03 10:10:00,
2013-03-03 05:15:00,29.5,24.4,29.64,NW,304,0.0,3.0,81,0.00,,,0.00,0.0,WUHU216DAVISWMX,2013-03-03 10:15:00,
2013-03-03 05:20:00,29.5,24.7,29.64,NW,304,0.0,3.0,82,0.00,,,0.00,0.0,WUHU216DAVISWMX,2013-03-03 10:20:00,
2013-03-03 05:25:00,29.4,24.6,29.64,NW,304,0.0,2.0,82,0.00,,,0.00,0.0,WUHU216DAVISWMX,2013-03-03 10:25:00,
2013-03-03 05:30:00,29.4,24.6,29.64,NW,304,1.0,3.0,82,0.00,,,0.00,0.0,WUHU216DAVISWMX,2013-03-03 10:30:00,
2013-03-03 05:35:00,29.4,24.6,29.64,NW,304,1.0,4.0,82,0.00,,,0.00,0.0,WUHU216DAVISWMX,2013-03-03 10:35:00,
2013-03-03 05:40:00,29.4,24.6,29.64,NW,304,1.0,4.0,82,0.00,,,0.00,0.0,WUHU216DAVISWMX,2013-03-03 10:40:00,
2013-03-03 05:45:00,29.3,24.5,29.64,NW,304,4.0,5.0,82,0.00,,,0.00,0.0,WUHU216DAVISWMX,2013-03-03 10:45:00,
2013-03-03 05:50:00,29.3,24.5,29.64,NW,304,1.0,5.0,82,0.00,,,0.00,0.0,WUHU216DAVISWMX,2013-03-03 10:50:00,
2013-03-03 05:55:00,29.3,24.5,29.64,NW,304,1.0,5.0,82,0.00,,,0.00,0.0,WUHU216DAVISWMX,2013-03-03 10:55:00,
2013-03-03 06:00:00,29.3,24.5,29.64,NW,304,3.0,4.0,82,0.00,,,0.00,0.0,WUHU216DAVISWMX,2013-03-03 11:00:00,
2013-03-03 06:05:00,29.3,24.5,29.64,NW,304,2.0,4.0,82,0.00,,,0.00,0.0,WUHU216DAVISWMX,2013-03-03 11:05:00,
2013-03-03 06:10:00,29.3,24.2,29.64,NW,304,0.0,4.0,81,0.00,,,0.00,0.0,WUHU216DAVISWMX,2013-03-03 11:10:00,
2013-03-03 06:15:00,29.4,24.6,29.64,NW,304,0.0,6.0,82,0.00,,,0.00,0.0,WUHU216DAVISWMX,2013-03-03 11:15:00,
2013-03-03 06:20:00,29.4,24.6,29.64,WNW,294,2.0,6.0,82,0.00,,,0.00,0.0,WUHU216DAVISWMX,2013-03-03 11:20:00,
2013-03-03 06:25:00,29.4,24.3,29.65,WNW,294,0.0,6.0,81,0.00,,,0.00,0.0,WUHU216DAVISWMX,2013-03-03 11:25:00,
2013-03-03 06:30:00,29.4,24.3,29.65,WNW,294,3.0,4.0,81,0.00,,,0.00,0.0,WUHU216DAVISWMX,2013-03-03 11:30:00,
2013-03-03 06:35:00,29.4,24.3,29.65,WNW,294,3.0,4.0,81,0.00,,,0.00,0.0,WUHU216DAVISWMX,2013-03-03 11:35:00,
2013-03-03 06:40:00,29.5,24.4,29.65,WNW,294,1.0,4.0,81,0.00,,,0.00,0.0,WUHU216DAVISWMX,2013-03-03 11:40:00,
2013-03-03 06:45:00,29.5,24.4,29.65,WNW,294,2.0,2.0,81,0.00,,,0.00,0.0,WUHU216DAVISWMX,2013-03-03 11:45:00,
2013-03-03 06:50:00,29.5,24.4,29.65,WNW,294,0.0,2.0,81,0.00,,,0.00,0.0,WUHU216DAVISWMX,2013-03-03 11:50:00,
2013-03-03 06:55:00,29.6,24.5,29.65,WNW,294,0.0,2.0,81,0.00,,,0.00,0.0,WUHU216DAVISWMX,2013-03-03 11:55:00,
2013-03-03 07:00:00,29.6,24.5,29.65,WNW,294,1.0,4.0,81,0.00,,,0.00,0.0,WUHU216DAVISWMX,2013-03-03 12:00:00,
2013-03-03 07:05:00,29.6,24.5,29.65,WNW,294,3.0,4.0,81,0.00,,,0.00,0.0,WUHU216DAVISWMX,2013-03-03 12:05:00,
2013-03-03 07:10:00,29.7,24.6,29.66,WNW,294,0.0,5.0,81,0.00,,,0.00,0.0,WUHU216DAVISWMX,2013-03-03 12:10:00,
2013-03-03 07:15:00,29.6,24.2,29.65,WNW,299,2.0,7.0,80,0.00,,,0.00,0.0,WUHU216DAVISWMX,2013-03-03 12:15:00,
2013-03-03 07:20:00,29.6,24.2,29.65,NW,304,3.0,7.0,80,0.00,,,0.00,0.0,WUHU216DAVISWMX,2013-03-03 12:20:00,
2013-03-03 07:25:00,29.6,24.2,29.66,NW,314,5.0,8.0,80,0.00,,,0.00,0.0,WUHU216DAVISWMX,2013-03-03 12:25:00,
2013-03-03 07:30:00,29.6,24.2,29.66,WNW,298,4.0,8.0,80,0.00,,,0.00,0.0,WUHU216DAVISWMX,2013-03-03 12:30:00,
2013-03-03 07:35:00,29.6,24.2,29.66,NW,307,0.0,7.0,80,0.00,,,0.00,0.0,WUHU216DAVISWMX,2013-03-03 12:35:00,
2013-03-03 07:40:00,29.7,24.3,29.65,NW,307,3.0,5.0,80,0.00,,,0.00,0.0,WUHU216DAVISWMX,2013-03-03 12:40:00,
2013-03-03 07:45:00,29.8,24.4,29.66,WNW,295,4.0,6.0,80,0.00,,,0.00,0.0,WUHU216DAVISWMX,2013-03-03 12:45:00,
2013-03-03 07:50:00,29.9,24.5,29.66,NW,304,0.0,6.0,80,0.00,,,0.00,0.0,WUHU216DAVISWMX,2013-03-03 12:50:00,
2013-03-03 07:55:00,29.9,24.5,29.66,NW,305,4.0,6.0,80,0.00,,,0.00,0.0,WUHU216DAVISWMX,2013-03-03 12:55:00,
2013-03-03 08:00:00,30.0,24.6,29.65,WNW,299,3.0,6.0,80,0.00,,,0.00,0.0,WUHU216DAVISWMX,2013-03-03 13:00:00,
2013-03-03 08:05:00,30.0,24.6,29.66,WNW,292,4.0,7.0,80,0.00,,,0.00,0.0,WUHU216DAVISWMX,2013-03-03 13:05:00,
2013-03-03 08:10:00,30.0,24.6,29.66,WNW,292,5.0,7.0,80,0.00,,,0.00,0.0,WUHU216DAVISWMX,2013-03-03 13:10:00,
2013-03-03 08:15:00,30.0,24.6,29.65,WNW,289,5.0,7.0,80,0.00,,,0.00,0.0,WUHU216DAVISWMX,2013-03-03 13:15:00,
2013-03-03 08:20:00,30.1,24.7,29.65,WNW,294,1.0,7.0,80,0.00,,,0.00,0.0,WUHU216DAVISWMX,2013-03-03 13:20:00,
2013-03-03 08:25:00,30.2,24.8,29.65,WNW,294,4.0,6.0,80,0.00,,,0.00,0.0,WUHU216DAVISWMX,2013-03-03 13:25:00,
2013-03-03 08:30:00,30.3,24.6,29.65,WNW,294,5.0,5.0,79,0.00,,,0.00,0.0,WUHU216DAVISWMX,2013-03-03 13:30:00,
2013-03-03 08:35:00,30.4,24.4,29.65,WNW,300,6.0,7.0,78,0.00,,,0.00,0.0,WUHU216DAVISWMX,2013-03-03 13:35:00,
2013-03-03 08:40:00,30.5,24.5,29.65,WNW,293,3.0,9.0,78,0.00,,,0.00,0.0,WUHU216DAVISWMX,2013-03-03 13:40:00,
2013-03-03 08:45:00,30.4,24.4,29.65,WNW,295,4.0,9.0,78,0.00,,,0.00,0.0,WUHU216DAVISWMX,2013-03-03 13:45:00,
2013-03-03 08:50:00,30.6,24.6,29.65,NW,311,2.0,6.0,78,0.00,,,0.00,0.0,WUHU216DAVISWMX,2013-03-03 13:50:00,
2013-03-03 08:55:00,30.7,24.7,29.65,WNW,298,3.0,6.0,78,0.00,,,0.00,0.0,WUHU216DAVISWMX,2013-03-03 13:55:00,
2013-03-03 09:00:00,30.8,25.1,29.65,NW,314,4.0,6.0,79,0.00,,,0.00,0.0,WUHU216DAVISWMX,2013-03-03 14:00:00,
2013-03-03 09:05:00,30.7,25.3,29.65,WNW,293,4.0,6.0,80,0.00,,,0.00,0.0,WUHU216DAVISWMX,2013-03-03 14:05:00,
2013-03-03 09:10:00,30.6,25.5,29.65,NW,311,3.0,7.0,81,0.00,,,0.00,0.0,WUHU216DAVISWMX,2013-03-03 14:10:00,
2013-03-03 09:15:00,30.3,25.2,29.65,WNW,303,5.0,10.0,81,0.00,,,0.00,0.0,WUHU216DAVISWMX,2013-03-03 14:15:00,
2013-03-03 09:20:00,30.1,25.3,29.65,WNW,297,4.0,10.0,82,0.00,,,0.00,0.0,WUHU216DAVISWMX,2013-03-03 14:20:00,
2013-03-03 09:25:00,29.9,25.4,29.65,NW,310,3.0,7.0,83,0.00,,,0.00,0.0,WUHU216DAVISWMX,2013-03-03 14:25:00,
2013-03-03 09:30:00,30.1,25.5,29.65,NW,308,1.0,7.0,83,0.00,,,0.00,0.0,WUHU216DAVISWMX,2013-03-03 14:30:00,
2013-03-03 09:35:00,30.1,25.5,29.65,WNW,296,5.0,8.0,83,0.00,,,0.00,0.0,WUHU216DAVISWMX,2013-03-03 14:35:00,
2013-03-03 09:40:00,30.3,25.7,29.65,NW,304,4.0,8.0,83,0.00,,,0.00,0.0,WUHU216DAVISWMX,2013-03-03 14:40:00,
2013-03-03 09:45:00,30.4,25.8,29.64,WNW,285,2.0,8.0,83,0.00,,,0.00,0.0,WUHU216DAVISWMX,2013-03-03 14:45:00,
2013-03-03 09:50:00,30.7,26.1,29.64,WNW,297,3.0,6.0,83,0.00,,,0.00,0.0,WUHU216DAVISWMX,2013-03-03 14:50:00,
2013-03-03 09:55:00,30.8,26.2,29.64,NW,322,1.0,6.0,83,0.00,,,0.00,0.0,WUHU216DAVISWMX,2013-03-03 14:55:00,
2013-03-03 10:00:00,30.9,26.3,29.64,NW,308,6.0,6.0,83,0.00,,,0.00,0.0,WUHU216DAVISWMX,2013-03-03 15:00:00,
2013-03-03 10:05:00,31.0,26.4,29.64,NW,319,4.0,6.0,83,0.00,,,0.00,0.0,WUHU216DAVISWMX,2013-03-03 15:05:00,
2013-03-03 10:10:00,31.3,26.7,29.64,WNW,295,4.0,6.0,83,0.00,,,0.00,0.0,WUHU216DAVISWMX,2013-03-03 15:10:00,
2013-03-03 10:15:00,31.7,27.1,29.64,WNW,297,5.0,6.0,83,0.00,,,0.00,0.0,WUHU216DAVISWMX,2013-03-03 15:15:00,
2013-03-03 10:20:00,32.1,27.5,29.64,WNW,284,0.0,7.0,83,0.00,,,0.00,0.0,WUHU216DAVISWMX,2013-03-03 15:20:00,
2013-03-03 10:25:00,32.3,27.4,29.63,WNW,288,2.0,7.0,82,0.00,,,0.00,0.0,WUHU216DAVISWMX,2013-03-03 15:25:00,
2013-03-03 10:30:00,32.6,27.7,29.63,WNW,289,2.0,7.0,82,0.00,,,0.00,0.0,WUHU216DAVISWMX,2013-03-03 15:30:00,
2013-03-03 10:35:00,32.8,27.9,29.63,WNW,303,6.0,6.0,82,0.00,,,0.00,0.0,WUHU216DAVISWMX,2013-03-03 15:35:00,
2013-03-03 10:40:00,32.9,27.7,29.63,NW,311,0.0,7.0,81,0.00,,,0.00,0.0,WUHU216DAVISWMX,2013-03-03 15:40:00,
2013-03-03 10:45:00,33.3,27.8,29.63,NW,305,2.0,7.0,80,0.00,,,0.00,0.0,WUHU216DAVISWMX,2013-03-03 15:45:00,
2013-03-03 10:50:00,33.3,27.8,29.63,WNW,290,4.0,8.0,80,0.00,,,0.00,0.0,WUHU216DAVISWMX,2013-03-03 15:50:00,
2013-03-03 10:55:00,33.5,28.0,29.63,NW,321,4.0,8.0,80,0.00,,,0.00,0.0,WUHU216DAVISWMX,2013-03-03 15:55:00,
2013-03-03 11:00:00,33.8,28.3,29.63,NW,321,2.0,7.0,80,0.00,,,0.00,0.0,WUHU216DAVISWMX,2013-03-03 16:00:00,
2013-03-03 11:05:00,34.2,28.7,29.63,WNW,296,0.0,8.0,80,0.00,,,0.00,0.0,WUHU216DAVISWMX,2013-03-03 16:05:00,
2013-03-03 11:10:00,34.4,28.6,29.63,West,274,4.0,9.0,79,0.00,,,0.00,0.0,WUHU216DAVISWMX,2013-03-03 16:10:00,
2013-03-03 11:15:00,34.4,28.6,29.63,West,273,0.0,9.0,79,0.00,,,0.00,0.0,WUHU216DAVISWMX,2013-03-03 16:15:00,
2013-03-03 11:20:00,34.4,28.6,29.63,WNW,286,3.0,7.0,79,0.00,,,0.00,0.0,WUHU216DAVISWMX,2013-03-03 16:20:00,
2013-03-03 11:25:00,34.5,29.0,29.63,WNW,296,2.0,7.0,80,0.00,,,0.00,0.0,WUHU216DAVISWMX,2013-03-03 16:25:00,
2013-03-03 11:30:00,34.9,29.4,29.63,WNW,297,2.0,7.0,80,0.00,,,0.00,0.0,WUHU216DAVISWMX,2013-03-03 16:30:00,
2013-03-03 11:35:00,35.0,29.2,29.62,WNW,291,2.0,6.0,79,0.00,,,0.00,0.0,WUHU216DAVISWMX,2013-03-03 16:35:00,
2013-03-03 11:40:00,35.2,29.4,29.62,West,272,4.0,7.0,79,0.00,,,0.00,0.0,WUHU216DAVISWMX,2013-03-03 16:40:00,
2013-03-03 11:45:00,35.2,29.1,29.62,NNW,327,3.0,7.0,78,0.00,,,0.00,0.0,WUHU216DAVISWMX,2013-03-03 16:45:00,
2013-03-03 11:50:00,35.4,29.6,29.62,NW,313,2.0,7.0,79,0.00,,,0.00,0.0,WUHU216DAVISWMX,2013-03-03 16:50:00,
2013-03-03 11:55:00,35.6,29.7,29.61,WSW,258,2.0,7.0,79,0.00,,,0.00,0.0,WUHU216DAVISWMX,2013-03-03 16:55:00,
2013-03-03 12:00:00,35.9,30.0,29.61,West,281,3.0,7.0,79,0.00,,,0.00,0.0,WUHU216DAVISWMX,2013-03-03 17:00:00,
2013-03-03 12:05:00,36.0,30.4,29.61,WNW,289,4.0,7.0,80,0.00,,,0.00,0.0,WUHU216DAVISWMX,2013-03-03 17:05:00,
2013-03-03 12:10:00,36.1,30.5,29.61,WNW,296,3.0,7.0,80,0.00,,,0.00,0.0,WUHU216DAVISWMX,2013-03-03 17:10:00,
2013-03-03 12:15:00,35.9,30.3,29.61,WNW,297,1.0,7.0,80,0.00,,,0.00,0.0,WUHU216DAVISWMX,2013-03-03 17:15:00,
2013-03-03 12:20:00,36.3,30.7,29.61,West,272,2.0,6.0,80,0.00,,,0.00,0.0,WUHU216DAVISWMX,2013-03-03 17:20:00,
2013-03-03 12:25:00,36.3,30.4,29.61,NW,318,2.0,7.0,79,0.00,,,0.00,0.0,WUHU216DAVISWMX,2013-03-03 17:25:00,
2013-03-03 12:30:00,36.4,30.2,29.60,WNW,291,3.0,7.0,78,0.00,,,0.00,0.0,WUHU216DAVISWMX,2013-03-03 17:30:00,
2013-03-03 12:35:00,36.4,30.5,29.60,NNW,348,3.0,6.0,79,0.00,,,0.00,0.0,WUHU216DAVISWMX,2013-03-03 17:35:00,
2013-03-03 12:40:00,36.2,30.0,29.60,NW,309,2.0,6.0,78,0.00,,,0.00,0.0,WUHU216DAVISWMX,2013-03-03 17:40:00,
2013-03-03 12:45:00,36.3,30.1,29.60,NNW,335,2.0,6.0,78,0.00,,,0.00,0.0,WUHU216DAVISWMX,2013-03-03 17:45:00,
2013-03-03 12:50:00,36.3,30.1,29.60,NW,309,7.0,7.0,78,0.00,,,0.00,0.0,WUHU216DAVISWMX,2013-03-03 17:50:00,
2013-03-03 12:55:00,36.7,30.5,29.59,WNW,288,4.0,7.0,78,0.00,,,0.00,0.0,WUHU216DAVISWMX,2013-03-03 17:55:00,
2013-03-03 13:00:00,36.7,30.5,29.59,WNW,293,0.0,7.0,78,0.00,,,0.00,0.0,WUHU216DAVISWMX,2013-03-03 18:00:00,
2013-03-03 13:05:00,37.0,31.1,29.59,WNW,296,6.0,6.0,79,0.00,,,0.00,0.0,WUHU216DAVISWMX,2013-03-03 18:05:00,
2013-03-03 13:10:00,36.9,31.0,29.59,WNW,293,0.0,6.0,79,0.00,,,0.00,0.0,WUHU216DAVISWMX,2013-03-03 18:10:00,
2013-03-03 13:15:00,37.0,31.1,29.59,WNW,293,3.0,6.0,79,0.00,,,0.00,0.0,WUHU216DAVISWMX,2013-03-03 18:15:00,
2013-03-03 13:20:00,36.9,31.3,29.59,NW,309,2.0,5.0,80,0.00,,,0.00,0.0,WUHU216DAVISWMX,2013-03-03 18:20:00,
2013-03-03 13:25:00,36.8,31.2,29.59,NW,324,4.0,6.0,80,0.00,,,0.00,0.0,WUHU216DAVISWMX,2013-03-03 18:25:00,
2013-03-03 13:30:00,36.8,30.9,29.59,NW,324,1.0,6.0,79,0.00,,,0.00,0.0,WUHU216DAVISWMX,2013-03-03 18:30:00,
2013-03-03 13:35:00,37.1,31.2,29.58,NW,314,4.0,6.0,79,0.00,,,0.00,0.0,WUHU216DAVISWMX,2013-03-03 18:35:00,
2013-03-03 13:40:00,37.2,31.0,29.59,WNW,287,6.0,6.0,78,0.00,,,0.00,0.0,WUHU216DAVISWMX,2013-03-03 18:40:00,
2013-03-03 13:45:00,37.1,30.9,29.59,NW,305,3.0,8.0,78,0.00,,,0.00,0.0,WUHU216DAVISWMX,2013-03-03 18:45:00,
2013-03-03 13:50:00,37.3,31.1,29.58,WNW,295,2.0,8.0,78,0.00,,,0.00,0.0,WUHU216DAVISWMX,2013-03-03 18:50:00,
2013-03-03 13:55:00,37.5,31.0,29.59,WNW,295,2.0,5.0,77,0.00,,,0.00,0.0,WUHU216DAVISWMX,2013-03-03 18:55:00,
2013-03-03 14:00:00,37.7,31.5,29.58,WNW,295,1.0,6.0,78,0.00,,,0.00,0.0,WUHU216DAVISWMX,2013-03-03 19:00:00,
2013-03-03 14:05:00,38.2,31.7,29.58,WNW,294,2.0,6.0,77,0.00,,,0.00,0.0,WUHU216DAVISWMX,2013-03-03 19:05:00,
2013-03-03 14:10:00,38.4,31.5,29.58,WNW,295,2.0,5.0,76,0.00,,,0.00,0.0,WUHU216DAVISWMX,2013-03-03 19:10:00,
2013-03-03 14:15:00,38.5,31.3,29.58,WNW,295,0.0,6.0,75,0.00,,,0.00,0.0,WUHU216DAVISWMX,2013-03-03 19:15:00,
2013-03-03 14:20:00,38.6,30.8,29.58,WNW,290,4.0,6.0,73,0.00,,,0.00,0.0,WUHU216DAVISWMX,2013-03-03 19:20:00,
2013-03-03 14:25:00,38.5,30.7,29.58,WNW,290,1.0,5.0,73,0.00,,,0.00,0.0,WUHU216DAVISWMX,2013-03-03 19:25:00,
2013-03-03 14:30:00,38.4,30.9,29.58,WNW,289,4.0,5.0,74,0.00,,,0.00,0.0,WUHU216DAVISWMX,2013-03-03 19:30:00,
2013-03-03 14:35:00,38.1,30.9,29.58,WNW,290,2.0,6.0,75,0.00,,,0.00,0.0,WUHU216DAVISWMX,2013-03-03 19:35:00,
2013-03-03 14:40:00,37.8,31.3,29.58,WNW,291,4.0,6.0,77,0.00,,,0.00,0.0,WUHU216DAVISWMX,2013-03-03 19:40:00,
2013-03-03 14:45:00,37.7,31.2,29.58,WNW,286,6.0,8.0,77,0.00,,,0.00,0.0,WUHU216DAVISWMX,2013-03-03 19:45:00,
2013-03-03 14:50:00,37.4,31.2,29.58,NW,310,4.0,8.0,78,0.00,,,0.00,0.0,WUHU216DAVISWMX,2013-03-03 19:50:00,
2013-03-03 14:55:00,37.1,31.2,29.58,NW,312,3.0,8.0,79,0.00,,,0.00,0.0,WUHU216DAVISWMX,2013-03-03 19:55:00,
2013-03-03 15:00:00,37.0,31.4,29.58,NW,324,5.0,6.0,80,0.00,,,0.00,0.0,WUHU216DAVISWMX,2013-03-03 20:00:00,
2013-03-03 15:05:00,37.0,31.1,29.58,NW,309,2.0,6.0,79,0.00,,,0.00,0.0,WUHU216DAVISWMX,2013-03-03 20:05:00,
2013-03-03 15:10:00,37.2,31.3,29.58,WNW,303,3.0,6.0,79,0.00,,,0.00,0.0,WUHU216DAVISWMX,2013-03-03 20:10:00,
2013-03-03 15:15:00,37.2,31.3,29.58,WNW,300,5.0,6.0,79,0.00,,,0.00,0.0,WUHU216DAVISWMX,2013-03-03 20:15:00,
2013-03-03 15:20:00,37.4,31.2,29.58,WNW,291,2.0,6.0,78,0.00,,,0.00,0.0,WUHU216DAVISWMX,2013-03-03 20:20:00,
2013-03-03 15:25:00,37.6,31.4,29.58,WNW,291,3.0,8.0,78,0.00,,,0.00,0.0,WUHU216DAVISWMX,2013-03-03 20:25:00,
2013-03-03 15:30:00,37.6,31.1,29.58,West,274,7.0,8.0,77,0.00,,,0.00,0.0,WUHU216DAVISWMX,2013-03-03 20:30:00,
2013-03-03 15:35:00,37.7,30.9,29.58,WNW,294,5.0,7.0,76,0.00,,,0.00,0.0,WUHU216DAVISWMX,2013-03-03 20:35:00,
2013-03-03 15:40:00,37.7,31.2,29.58,WNW,294,2.0,7.0,77,0.00,,,0.00,0.0,WUHU216DAVISWMX,2013-03-03 20:40:00,
2013-03-03 15:45:00,37.8,31.0,29.58,WNW,294,1.0,5.0,76,0.00,,,0.00,0.0,WUHU216DAVISWMX,2013-03-03 20:45:00,
2013-03-03 15:50:00,38.0,30.8,29.57,WNW,294,4.0,5.0,75,0.00,,,0.00,0.0,WUHU216DAVISWMX,2013-03-03 20:50:00,
2013-03-03 15:55:00,38.1,30.6,29.57,NW,318,5.0,6.0,74,0.00,,,0.00,0.0,WUHU216DAVISWMX,2013-03-03 20:55:00,
2013-03-03 16:00:00,38.1,30.6,29.58,NW,320,2.0,6.0,74,0.00,,,0.00,0.0,WUHU216DAVISWMX,2013-03-03 21:00:00,
2013-03-03 16:05:00,38.2,30.4,29.58,WNW,294,3.0,6.0,73,0.00,,,0.00,0.0,WUHU216DAVISWMX,2013-03-03 21:05:00,
2013-03-03 16:10:00,38.2,30.0,29.57,WNW,302,5.0,7.0,72,0.00,,,0.00,0.0,WUHU216DAVISWMX,2013-03-03 21:10:00,
2013-03-03 16:15:00,38.2,30.0,29.58,WNW,300,1.0,7.0,72,0.00,,,0.00,0.0,WUHU216DAVISWMX,2013-03-03 21:15:00,
2013-03-03 16:20:00,38.2,30.4,29.57,WNW,300,1.0,5.0,73,0.00,,,0.00,0.0,WUHU216DAVISWMX,2013-03-03 21:20:00,
2013-03-03 16:25:00,38.3,30.1,29.58,WNW,298,1.0,6.0,72,0.00,,,0.00,0.0,WUHU216DAVISWMX,2013-03-03 21:25:00,
2013-03-03 16:30:00,38.3,30.1,29.58,WNW,298,3.0,6.0,72,0.00,,,0.00,0.0,WUHU216DAVISWMX,2013-03-03 21:30:00,
2013-03-03 16:35:00,38.2,30.0,29.58,WNW,298,5.0,5.0,72,0.00,,,0.00,0.0,WUHU216DAVISWMX,2013-03-03 21:35:00,
2013-03-03 16:40:00,38.2,30.0,29.58,WNW,298,3.0,5.0,72,0.00,,,0.00,0.0,WUHU216DAVISWMX,2013-03-03 21:40:00,
2013-03-03 16:45:00,38.1,29.9,29.58,WNW,299,0.0,5.0,72,0.00,,,0.00,0.0,WUHU216DAVISWMX,2013-03-03 21:45:00,
2013-03-03 16:50:00,38.1,29.6,29.58,WNW,298,1.0,5.0,71,0.00,,,0.00,0.0,WUHU216DAVISWMX,2013-03-03 21:50:00,
2013-03-03 16:55:00,38.0,29.2,29.58,WNW,282,3.0,7.0,70,0.00,,,0.00,0.0,WUHU216DAVISWMX,2013-03-03 21:55:00,
2013-03-03 17:00:00,38.0,29.2,29.58,WNW,284,2.0,7.0,70,0.00,,,0.00,0.0,WUHU216DAVISWMX,2013-03-03 22:00:00,
2013-03-03 17:05:00,38.0,29.2,29.58,WNW,284,0.0,6.0,70,0.00,,,0.00,0.0,WUHU216DAVISWMX,2013-03-03 22:05:00,
2013-03-03 17:10:00,37.9,29.1,29.58,WNW,285,1.0,4.0,70,0.00,,,0.00,0.0,WUHU216DAVISWMX,2013-03-03 22:10:00,
2013-03-03 17:15:00,37.8,28.6,29.59,WNW,285,2.0,4.0,69,0.00,,,0.00,0.0,WUHU216DAVISWMX,2013-03-03 22:15:00,
2013-03-03 17:20:00,37.7,28.5,29.59,WNW,300,2.0,7.0,69,0.00,,,0.00,0.0,WUHU216DAVISWMX,2013-03-03 22:20:00,
2013-03-03 17:25:00,37.6,28.1,29.59,WNW,301,3.0,7.0,68,0.00,,,0.00,0.0,WUHU216DAVISWMX,2013-03-03 22:25:00,
2013-03-03 17:30:00,37.6,28.4,29.59,WNW,301,1.0,5.0,69,0.00,,,0.00,0.0,WUHU216DAVISWMX,2013-03-03 22:30:00,
2013-03-03 17:35:00,37.5,28.3,29.59,WNW,301,1.0,3.0,69,0.00,,,0.00,0.0,WUHU216DAVISWMX,2013-03-03 22:35:00,
2013-03-03 17:40:00,37.4,27.9,29.59,WNW,301,2.0,4.0,68,0.00,,,0.00,0.0,WUHU216DAVISWMX,2013-03-03 22:40:00,
2013-03-03 17:45:00,37.3,27.8,29.59,NW,306,1.0,5.0,68,0.00,,,0.00,0.0,WUHU216DAVISWMX,2013-03-03 22:45:00,
2013-03-03 17:50:00,37.2,28.0,29.60,NW,306,0.0,5.0,69,0.00,,,0.00,0.0,WUHU216DAVISWMX,2013-03-03 22:50:00,
2013-03-03 17:55:00,37.0,27.8,29.60,NW,309,4.0,7.0,69,0.00,,,0.00,0.0,WUHU216DAVISWMX,2013-03-03 22:55:00,
2013-03-03 18:00:00,36.7,27.9,29.60,NW,319,6.0,8.0,70,0.00,,,0.00,0.0,WUHU216DAVISWMX,2013-03-03 23:00:00,
2013-03-03 18:05:00,36.4,28.0,29.60,WNW,301,2.0,9.0,71,0.00,,,0.00,0.0,WUHU216DAVISWMX,2013-03-03 23:05:00,
2013-03-03 18:10:00,36.2,28.1,29.60,WNW,301,2.0,9.0,72,0.00,,,0.00,0.0,WUHU216DAVISWMX,2013-03-03 23:10:00,
2013-03-03 18:15:00,36.1,28.0,29.60,WNW,302,0.0,5.0,72,0.00,,,0.00,0.0,WUHU216DAVISWMX,2013-03-03 23:15:00,
2013-03-03 18:20:00,36.0,27.9,29.60,NW,306,4.0,5.0,72,0.00,,,0.00,0.0,WUHU216DAVISWMX,2013-03-03 23:20:00,
2013-03-03 18:25:00,36.0,27.9,29.60,NW,308,2.0,5.0,72,0.00,,,0.00,0.0,WUHU216DAVISWMX,2013-03-03 23:25:00,
2013-03-03 18:30:00,36.0,27.9,29.60,NW,317,2.0,5.0,72,0.00,,,0.00,0.0,WUHU216DAVISWMX,2013-03-03 23:30:00,
2013-03-03 18:35:00,36.0,27.9,29.60,NW,317,2.0,5.0,72,0.00,,,0.00,0.0,WUHU216DAVISWMX,2013-03-03 23:35:00,
2013-03-03 18:40:00,36.0,27.9,29.60,NW,317,2.0,4.0,72,0.00,,,0.00,0.0,WUHU216DAVISWMX,2013-03-03 23:40:00,
2013-03-03 18:45:00,35.9,27.8,29.60,WNW,290,2.0,5.0,72,0.00,,,0.00,0.0,WUHU216DAVISWMX,2013-03-03 23:45:00,
2013-03-03 18:50:00,35.9,27.8,29.60,WNW,285,3.0,5.0,72,0.00,,,0.00,0.0,WUHU216DAVISWMX,2013-03-03 23:50:00,
2013-03-03 18:55:00,35.8,27.7,29.60,WNW,286,3.0,5.0,72,0.00,,,0.00,0.0,WUHU216DAVISWMX,2013-03-03 23:55:00,
2013-03-03 19:00:00,35.8,27.4,29.60,WNW,286,2.0,5.0,71,0.00,,,0.00,0.0,WUHU216DAVISWMX,2013-03-04 00:00:00,
2013-03-03 19:05:00,35.7,27.6,29.61,WNW,296,3.0,6.0,72,0.00,,,0.00,0.0,WUHU216DAVISWMX,2013-03-04 00:05:00,
2013-03-03 19:10:00,35.7,27.6,29.61,WNW,297,3.0,6.0,72,0.00,,,0.00,0.0,WUHU216DAVISWMX,2013-03-04 00:10:00,
2013-03-03 19:15:00,35.7,27.6,29.61,WNW,289,1.0,5.0,72,0.00,,,0.00,0.0,WUHU216DAVISWMX,2013-03-04 00:15:00,
2013-03-03 19:20:00,35.6,27.5,29.61,WNW,299,2.0,7.0,72,0.00,,,0.00,0.0,WUHU216DAVISWMX,2013-03-04 00:20:00,
2013-03-03 19:25:00,35.6,27.5,29.61,WNW,288,4.0,7.0,72,0.00,,,0.00,0.0,WUHU216DAVISWMX,2013-03-04 00:25:00,
2013-03-03 19:30:00,35.6,27.5,29.61,WNW,283,5.0,8.0,72,0.00,,,0.00,0.0,WUHU216DAVISWMX,2013-03-04 00:30:00,
2013-03-03 19:35:00,35.6,27.5,29.61,West,270,2.0,8.0,72,0.00,,,0.00,0.0,WUHU216DAVISWMX,2013-03-04 00:35:00,
2013-03-03 19:40:00,35.5,27.4,29.61,NW,307,3.0,10.0,72,0.00,,,0.00,0.0,WUHU216DAVISWMX,2013-03-04 00:40:00,
2013-03-03 19:45:00,35.5,27.4,29.61,WNW,301,5.0,10.0,72,0.00,,,0.00,0.0,WUHU216DAVISWMX,2013-03-04 00:45:00,
2013-03-03 19:50:00,35.5,27.4,29.61,NNW,327,4.0,9.0,72,0.00,,,0.00,0.0,WUHU216DAVISWMX,2013-03-04 00:50:00,
2013-03-03 19:55:00,35.4,27.3,29.61,NW,312,8.0,10.0,72,0.00,,,0.00,0.0,WUHU216DAVISWMX,2013-03-04 00:55:00,
2013-03-03 20:00:00,35.4,27.3,29.61,NW,305,9.0,10.0,72,0.00,,,0.00,0.0,WUHU216DAVISWMX,2013-03-04 01:00:00,
2013-03-03 20:05:00,35.3,27.2,29.61,NW,304,0.0,10.0,72,0.00,,,0.00,0.0,WUHU216DAVISWMX,2013-03-04 01:05:00,
2013-03-03 20:10:00,35.2,27.5,29.61,NW,313,6.0,9.0,73,0.00,,,0.00,0.0,WUHU216DAVISWMX,2013-03-04 01:10:00,
2013-03-03 20:15:00,35.2,27.5,29.61,NW,312,7.0,10.0,73,0.00,,,0.00,0.0,WUHU216DAVISWMX,2013-03-04 01:15:00,
2013-03-03 20:20:00,35.1,27.4,29.62,NNW,335,2.0,11.0,73,0.00,,,0.00,0.0,WUHU216DAVISWMX,2013-03-04 01:20:00,
2013-03-03 20:25:00,35.1,27.4,29.62,NW,304,3.0,11.0,73,0.00,,,0.00,0.0,WUHU216DAVISWMX,2013-03-04 01:25:00,
2013-03-03 20:30:00,35.0,27.3,29.62,NW,321,5.0,12.0,73,0.00,,,0.00,0.0,WUHU216DAVISWMX,2013-03-04 01:30:00,
2013-03-03 20:35:00,35.0,27.6,29.61,NW,305,6.0,12.0,74,0.00,,,0.00,0.0,WUHU216DAVISWMX,2013-03-04 01:35:00,
2013-03-03 20:40:00,34.9,27.5,29.62,NW,310,4.0,10.0,74,0.00,,,0.00,0.0,WUHU216DAVISWMX,2013-03-04 01:40:00,
2013-03-03 20:45:00,34.9,27.5,29.62,WNW,295,6.0,10.0,74,0.00,,,0.00,0.0,WUHU216DAVISWMX,2013-03-04 01:45:00,
2013-03-03 20:50:00,34.7,27.6,29.62,NNW,345,4.0,10.0,75,0.00,,,0.00,0.0,WUHU216DAVISWMX,2013-03-04 01:50:00,
2013-03-03 20:55:00,34.6,27.8,29.62,NW,304,5.0,9.0,76,0.00,,,0.00,0.0,WUHU216DAVISWMX,2013-03-04 01:55:00,
2013-03-03 21:00:00,34.6,27.5,29.62,WNW,298,7.0,12.0,75,0.00,,,0.00,0.0,WUHU216DAVISWMX,2013-03-04 02:00:00,
2013-03-03 21:05:00,34.6,27.2,29.62,NNW,337,6.0,14.0,74,0.00,,,0.00,0.0,WUHU216DAVISWMX,2013-03-04 02:05:00,
2013-03-03 21:10:00,34.5,27.1,29.62,NW,316,8.0,14.0,74,0.00,,,0.00,0.0,WUHU216DAVISWMX,2013-03-04 02:10:00,
2013-03-03 21:15:00,34.4,27.0,29.62,NNW,342,3.0,10.0,74,0.00,,,0.00,0.0,WUHU216DAVISWMX,2013-03-04 02:15:00,
2013-03-03 21:20:00,34.4,27.0,29.62,NW,325,7.0,9.0,74,0.00,,,0.00,0.0,WUHU216DAVISWMX,2013-03-04 02:20:00,
2013-03-03 21:25:00,34.3,26.9,29.62,WNW,288,6.0,9.0,74,0.00,,,0.00,0.0,WUHU216DAVISWMX,2013-03-04 02:25:00,
2013-03-03 21:30:00,34.3,26.9,29.62,NW,323,4.0,10.0,74,0.00,,,0.00,0.0,WUHU216DAVISWMX,2013-03-04 02:30:00,
2013-03-03 21:35:00,34.3,26.9,29.62,NW,316,4.0,12.0,74,0.00,,,0.00,0.0,WUHU216DAVISWMX,2013-03-04 02:35:00,
2013-03-03 21:40:00,34.2,26.8,29.62,NW,310,2.0,12.0,74,0.00,,,0.00,0.0,WUHU216DAVISWMX,2013-03-04 02:40:00,
2013-03-03 21:45:00,34.1,26.7,29.62,NW,306,2.0,7.0,74,0.00,,,0.00,0.0,WUHU216DAVISWMX,2013-03-04 02:45:00,
2013-03-03 21:50:00,34.0,26.6,29.61,NW,314,12.0,12.0,74,0.00,,,0.00,0.0,WUHU216DAVISWMX,2013-03-04 02:50:00,
2013-03-03 21:55:00,34.0,26.3,29.61,NW,308,4.0,13.0,73,0.00,,,0.00,0.0,WUHU216DAVISWMX,2013-03-04 02:55:00,
2013-03-03 22:00:00,33.9,26.5,29.61,NW,315,0.0,13.0,74,0.00,,,0.00,0.0,WUHU216DAVISWMX,2013-03-04 03:00:00,
2013-03-03 22:05:00,33.8,26.1,29.61,WNW,292,8.0,8.0,73,0.00,,,0.00,0.0,WUHU216DAVISWMX,2013-03-04 03:05:00,
2013-03-03 22:10:00,33.8,25.8,29.61,NW,308,9.0,10.0,72,0.00,,,0.00,0.0,WUHU216DAVISWMX,2013-03-04 03:10:00,
2013-03-03 22:15:00,33.8,26.1,29.61,NW,325,4.0,10.0,73,0.00,,,0.00,0.0,WUHU216DAVISWMX,2013-03-04 03:15:00,
2013-03-03 22:20:00,33.7,26.0,29.61,NW,305,4.0,8.0,73,0.00,,,0.00,0.0,WUHU216DAVISWMX,2013-03-04 03:20:00,
2013-03-03 22:25:00,33.7,26.0,29.61,NW,323,3.0,8.0,73,0.00,,,0.00,0.0,WUHU216DAVISWMX,2013-03-04 03:25:00,
2013-03-03 22:31:00,33.7,26.0,29.61,NW,315,6.0,12.0,73,0.00,,,0.00,0.0,WUHU216DAVISWMX,2013-03-04 03:31:00,
2013-03-03 22:36:00,33.7,26.0,29.61,WNW,289,5.0,13.0,73,0.00,,,0.00,0.0,WUHU216DAVISWMX,2013-03-04 03:36:00,
2013-03-03 22:41:00,33.6,25.9,29.61,NW,320,3.0,13.0,73,0.00,,,0.00,0.0,WUHU216DAVISWMX,2013-03-04 03:41:00,
2013-03-03 22:46:00,33.5,26.1,29.61,NW,311,4.0,5.0,74,0.00,,,0.00,0.0,WUHU216DAVISWMX,2013-03-04 03:46:00,
2013-03-03 22:51:00,33.5,26.1,29.61,WNW,298,3.0,10.0,74,0.00,,,0.00,0.0,WUHU216DAVISWMX,2013-03-04 03:51:00,
2013-03-03 22:56:00,33.4,26.1,29.61,WNW,300,3.0,10.0,74,0.00,,,0.00,0.0,WUHU216DAVISWMX,2013-03-04 03:56:00,
2013-03-03 23:01:00,33.3,26.0,29.61,WNW,285,3.0,8.0,74,0.00,,,0.00,0.0,WUHU216DAVISWMX,2013-03-04 04:01:00,
2013-03-03 23:06:00,33.3,26.3,29.61,WNW,287,2.0,8.0,75,0.00,,,0.00,0.0,WUHU216DAVISWMX,2013-03-04 04:06:00,
2013-03-03 23:11:00,33.2,26.2,29.61,WNW,287,2.0,5.0,75,0.00,,,0.00,0.0,WUHU216DAVISWMX,2013-03-04 04:11:00,
2013-03-03 23:16:00,33.1,26.1,29.61,WNW,291,0.0,5.0,75,0.00,,,0.00,0.0,WUHU216DAVISWMX,2013-03-04 04:16:00,
2013-03-03 23:21:00,33.1,26.1,29.61,WNW,288,2.0,5.0,75,0.00,,,0.00,0.0,WUHU216DAVISWMX,2013-03-04 04:21:00,
2013-03-03 23:26:00,33.0,26.0,29.61,WNW,296,1.0,5.0,75,0.00,,,0.00,0.0,WUHU216DAVISWMX,2013-03-04 04:26:00,
2013-03-03 23:31:00,32.9,25.9,29.61,WNW,283,0.0,6.0,75,0.00,,,0.00,0.0,WUHU216DAVISWMX,2013-03-04 04:31:00,
2013-03-03 23:36:00,32.8,25.8,29.61,WNW,284,6.0,7.0,75,0.00,,,0.00,0.0,WUHU216DAVISWMX,2013-03-04 04:36:00,
2013-03-03 23:41:00,32.7,25.7,29.61,WNW,298,4.0,7.0,75,0.00,,,0.00,0.0,WUHU216DAVISWMX,2013-03-04 04:41:00,
2013-03-03 23:46:00,32.6,25.6,29.61,NNW,339,0.0,7.0,75,0.00,,,0.00,0.0,WUHU216DAVISWMX,2013-03-04 04:46:00,
2013-03-03 23:51:00,32.5,25.5,29.61,NW,308,5.0,9.0,75,0.00,,,0.00,0.0,WUHU216DAVISWMX,2013-03-04 04:51:00,
2013-03-03 23:56:00,32.5,25.5,29.61,WNW,294,4.0,10.0,75,0.00,,,0.00,0.0,WUHU216DAVISWMX,2013-03-04 04:56:00,